Terug naar catalogus

CZ-6A DEB

ActiefPO
NORAD 56240·DEBRIS·🇨🇳 China

Gelanceerd Nov 11, 2022 vanaf Taiyuan Satellite Launch Center

Loading…

Volgende Passages (komende 24 uur)

TLE

VersSource: Space-Track

Epoch: Sep 14, 2026, 14:03 UTC

1 56240U 22151ABG 26257.58550911  .00012593  00000-0  13668-2 0  9990
2 56240  98.8165  17.6436 0061064 326.2118  33.5209 14.86936291192703

Volg CZ-6A DEB in realtime met AllMySat

Download on the App Store